Time,TemperatureF,DewpointF,PressureIn,WindDirection,WindDirectionDegrees,WindSpeedMPH,WindSpeedGustMPH,Humidity,HourlyPrecipIn,Conditions,Clouds,dailyrainin,SoftwareType,DateUTC
2013-02-18 00:00:00,16.7,3.4,29.88,NW,310,0.0,0.0,55,12.52,,,66.76,meteohub,2013-02-18 05:00:00,
2013-02-18 00:01:00,16.7,3.4,29.88,NW,310,0.0,0.0,55,12.04,,,67.48,meteohub,2013-02-18 05:01:00,
2013-02-18 00:06:00,16.7,3.4,29.88,NW,310,0.0,0.0,55,12.24,,,68.80,meteohub,2013-02-18 05:06:00,
2013-02-18 00:11:00,16.7,3.4,29.88,NW,310,0.0,0.0,55,12.48,,,70.24,meteohub,2013-02-18 05:11:00,
2013-02-18 00:16:00,16.7,3.4,29.88,NW,310,0.0,0.0,55,12.00,,,70.96,meteohub,2013-02-18 05:16:00,
2013-02-18 00:21:00,16.7,3.4,29.89,NW,310,0.0,0.0,55,12.36,,,72.40,meteohub,2013-02-18 05:21:00,
2013-02-18 00:27:00,16.7,3.4,29.89,NW,310,0.0,0.0,55,13.72,,,73.76,meteohub,2013-02-18 05:27:00,
2013-02-18 00:32:00,16.5,3.6,29.89,NW,310,0.0,0.0,56,13.28,,,74.48,meteohub,2013-02-18 05:32:00,
2013-02-18 00:37:00,16.5,3.6,29.90,NW,310,0.0,0.0,56,13.76,,,76.04,meteohub,2013-02-18 05:37:00,
2013-02-18 00:42:00,16.5,3.6,29.90,NW,310,0.0,0.0,56,13.28,,,76.76,meteohub,2013-02-18 05:42:00,
2013-02-18 00:47:00,16.5,3.6,29.90,NW,310,0.0,0.0,56,13.56,,,78.24,meteohub,2013-02-18 05:47:00,
2013-02-18 00:52:00,16.5,3.6,29.90,NW,310,0.0,0.0,56,13.88,,,79.68,meteohub,2013-02-18 05:52:00,
2013-02-18 00:57:00,16.5,3.9,29.91,NW,310,0.0,0.0,57,13.40,,,80.40,meteohub,2013-02-18 05:57:00,
2013-02-18 01:02:00,16.3,3.7,29.91,NW,310,0.0,0.0,57,13.52,,,81.72,meteohub,2013-02-18 06:02:00,
2013-02-18 01:07:00,16.5,3.6,29.91,NW,310,0.0,0.0,56,13.88,,,83.28,meteohub,2013-02-18 06:07:00,
2013-02-18 01:12:00,16.3,3.7,29.91,NW,310,0.0,0.0,57,13.40,,,83.88,meteohub,2013-02-18 06:12:00,
2013-02-18 01:17:00,16.3,3.7,29.91,NW,310,0.0,0.0,57,13.80,,,85.48,meteohub,2013-02-18 06:17:00,
2013-02-18 01:22:00,16.3,3.7,29.92,NW,310,0.0,0.0,57,13.32,,,86.20,meteohub,2013-02-18 06:22:00,
2013-02-18 01:27:00,16.3,3.7,29.91,NW,310,0.0,0.0,57,13.64,,,87.64,meteohub,2013-02-18 06:27:00,
2013-02-18 01:32:00,16.3,3.7,29.92,NW,310,0.0,0.0,57,13.04,,,88.24,meteohub,2013-02-18 06:32:00,
2013-02-18 01:37:00,16.2,3.9,29.92,NW,310,0.0,0.0,58,12.32,,,88.72,meteohub,2013-02-18 06:37:00,
2013-02-18 01:42:00,16.2,3.9,29.92,NW,310,0.0,0.0,58,12.76,,,90.28,meteohub,2013-02-18 06:42:00,
2013-02-18 01:47:00,16.2,3.9,29.93,NW,310,0.0,0.0,58,13.00,,,91.72,meteohub,2013-02-18 06:47:00,
2013-02-18 01:52:00,16.2,3.9,29.93,NW,310,0.0,0.0,58,12.52,,,92.44,meteohub,2013-02-18 06:52:00,
2013-02-18 01:57:00,16.2,3.9,29.93,NW,310,0.0,0.0,58,12.76,,,93.88,meteohub,2013-02-18 06:57:00,
2013-02-18 02:02:00,16.2,3.9,29.93,NW,310,0.0,0.0,58,12.40,,,94.60,meteohub,2013-02-18 07:02:00,
2013-02-18 02:07:00,16.0,3.7,29.94,NW,310,0.0,0.0,58,12.60,,,96.00,meteohub,2013-02-18 07:07:00,
2013-02-18 02:12:00,16.0,3.7,29.94,NW,310,0.0,0.0,58,12.96,,,97.56,meteohub,2013-02-18 07:12:00,
2013-02-18 02:17:00,16.0,3.7,29.94,NW,310,0.0,0.0,58,12.56,,,98.28,meteohub,2013-02-18 07:17:00,
2013-02-18 02:22:00,16.0,3.7,29.94,NW,310,0.0,0.0,58,11.96,,,98.88,meteohub,2013-02-18 07:22:00,
2013-02-18 02:27:00,16.0,3.7,29.94,NW,310,0.0,0.0,58,11.36,,,99.48,meteohub,2013-02-18 07:27:00,
2013-02-18 02:32:00,15.8,3.6,29.94,NW,310,0.0,0.0,58,12.68,,,99.99,meteohub,2013-02-18 07:32:00,
2013-02-18 02:37:00,15.6,3.6,29.94,NW,310,0.0,0.0,58,12.84,,,99.99,meteohub,2013-02-18 07:37:00,
2013-02-18 02:42:00,15.6,3.6,29.94,NW,310,0.0,0.0,58,12.48,,,99.99,meteohub,2013-02-18 07:42:00,
2013-02-18 02:47:00,15.6,3.6,29.94,NW,310,0.0,0.0,58,12.64,,,99.99,meteohub,2013-02-18 07:47:00,
2013-02-18 02:52:00,15.8,3.6,29.94,NW,310,0.0,0.0,58,12.28,,,99.99,meteohub,2013-02-18 07:52:00,
2013-02-18 02:57:00,15.8,3.6,29.94,NW,310,0.0,0.0,58,12.52,,,99.99,meteohub,2013-02-18 07:57:00,
2013-02-18 03:02:00,15.6,3.9,29.94,NW,310,0.0,0.0,59,12.60,,,99.99,meteohub,2013-02-18 08:02:00,
2013-02-18 03:07:00,15.6,3.9,29.94,NW,310,0.0,0.0,59,12.32,,,99.99,meteohub,2013-02-18 08:07:00,
2013-02-18 03:12:00,15.6,3.9,29.95,NW,310,0.0,0.0,59,12.56,,,99.99,meteohub,2013-02-18 08:12:00,
2013-02-18 03:17:00,15.4,3.7,29.95,NW,310,0.0,0.0,59,12.68,,,99.99,meteohub,2013-02-18 08:17:00,
2013-02-18 03:22:00,15.4,4.1,29.96,NW,310,0.0,0.0,60,13.40,,,99.99,meteohub,2013-02-18 08:22:00,
2013-02-18 03:27:00,15.4,4.1,29.96,NW,310,0.0,0.0,60,13.56,,,99.99,meteohub,2013-02-18 08:27:00,
2013-02-18 03:32:00,15.6,3.9,29.96,NW,310,0.0,0.0,59,13.08,,,99.99,meteohub,2013-02-18 08:32:00,
2013-02-18 03:37:00,15.4,4.1,29.96,NW,310,0.0,0.0,60,13.40,,,99.99,meteohub,2013-02-18 08:37:00,
2013-02-18 03:42:00,15.4,4.1,29.96,NW,310,0.0,0.0,60,13.64,,,99.99,meteohub,2013-02-18 08:42:00,
2013-02-18 03:47:00,15.4,4.1,29.97,NW,310,0.0,0.0,60,13.24,,,99.99,meteohub,2013-02-18 08:47:00,
2013-02-18 03:53:00,15.4,4.1,29.97,NW,310,0.0,0.0,60,13.48,,,99.99,meteohub,2013-02-18 08:53:00,
2013-02-18 03:58:00,15.4,4.1,29.97,NW,310,0.0,0.0,60,13.96,,,99.99,meteohub,2013-02-18 08:58:00,
2013-02-18 04:03:00,15.4,4.1,29.98,NW,310,0.0,0.0,60,13.52,,,99.99,meteohub,2013-02-18 09:03:00,
2013-02-18 04:08:00,15.4,4.1,29.98,NW,310,0.0,0.0,60,13.68,,,99.99,meteohub,2013-02-18 09:08:00,
2013-02-18 04:13:00,15.4,4.1,29.98,NW,310,0.0,0.0,60,13.32,,,99.99,meteohub,2013-02-18 09:13:00,
2013-02-18 04:18:00,15.4,4.5,29.98,NW,310,0.0,0.0,61,13.56,,,99.99,meteohub,2013-02-18 09:18:00,
2013-02-18 04:23:00,15.4,4.1,29.99,NW,310,0.0,0.0,60,13.80,,,99.99,meteohub,2013-02-18 09:23:00,
2013-02-18 04:28:00,15.4,4.1,29.99,NW,310,0.0,0.0,60,13.56,,,99.99,meteohub,2013-02-18 09:28:00,
2013-02-18 04:33:00,15.4,4.1,29.99,NW,310,0.0,0.0,60,13.80,,,99.99,meteohub,2013-02-18 09:33:00,
2013-02-18 04:39:00,15.4,3.7,29.99,NW,310,0.0,0.0,59,13.24,,,99.99,meteohub,2013-02-18 09:39:00,
2013-02-18 04:44:00,15.4,3.7,30.00,NW,310,0.0,0.0,59,13.64,,,99.99,meteohub,2013-02-18 09:44:00,
2013-02-18 04:49:00,15.4,4.1,30.01,NW,310,0.0,0.0,60,13.88,,,99.99,meteohub,2013-02-18 09:49:00,
2013-02-18 04:54:00,15.4,4.1,30.01,NW,310,0.0,0.0,60,13.32,,,99.99,meteohub,2013-02-18 09:54:00,
2013-02-18 04:59:00,15.4,3.7,30.01,NW,310,0.0,0.0,59,13.68,,,99.99,meteohub,2013-02-18 09:59:00,
2013-02-18 05:04:00,15.4,4.1,30.01,NW,310,0.0,0.0,60,13.96,,,99.99,meteohub,2013-02-18 10:04:00,
2013-02-18 05:09:00,15.4,3.7,30.02,NW,310,0.0,0.0,59,13.40,,,99.99,meteohub,2013-02-18 10:09:00,
2013-02-18 05:14:00,15.4,3.7,30.02,NW,310,0.0,0.0,59,13.76,,,99.99,meteohub,2013-02-18 10:14:00,
2013-02-18 05:20:00,15.4,4.1,30.02,NW,310,0.0,0.0,60,13.28,,,99.99,meteohub,2013-02-18 10:20:00,
2013-02-18 05:25:00,15.3,3.6,30.03,NW,310,0.0,0.0,59,13.43,,,99.99,meteohub,2013-02-18 10:25:00,
2013-02-18 05:30:00,15.3,3.6,30.03,NW,310,0.0,0.0,59,12.97,,,99.99,meteohub,2013-02-18 10:30:00,
2013-02-18 05:35:00,15.3,3.6,30.03,NW,310,0.0,0.0,59,12.79,,,99.99,meteohub,2013-02-18 10:35:00,
2013-02-18 05:40:00,15.3,3.6,30.03,NW,310,0.0,0.0,59,11.64,,,99.99,meteohub,2013-02-18 10:40:00,
2013-02-18 05:45:00,15.3,3.6,30.04,NW,310,0.0,0.0,59,10.66,,,99.99,meteohub,2013-02-18 10:45:00,
2013-02-18 05:51:00,15.3,3.6,30.04,NW,310,0.0,0.0,59,9.58,,,99.99,meteohub,2013-02-18 10:51:00,
2013-02-18 05:56:00,15.3,3.6,30.04,NW,310,0.0,0.0,59,8.38,,,99.99,meteohub,2013-02-18 10:56:00,
2013-02-18 06:01:00,15.3,3.2,30.05,NW,310,0.0,0.0,58,7.18,,,99.99,meteohub,2013-02-18 11:01:00,
2013-02-18 06:06:00,15.3,3.6,30.05,NW,310,0.0,0.0,59,6.06,,,99.99,meteohub,2013-02-18 11:06:00,
2013-02-18 06:11:00,15.3,3.6,30.05,NW,310,0.0,0.0,59,4.98,,,99.99,meteohub,2013-02-18 11:11:00,
2013-02-18 06:16:00,15.3,3.6,30.05,NW,310,0.0,0.0,59,3.78,,,99.99,meteohub,2013-02-18 11:16:00,
2013-02-18 06:22:00,15.3,3.6,30.06,NW,310,0.0,0.0,59,2.59,,,99.99,meteohub,2013-02-18 11:22:00,
2013-02-18 06:27:00,15.4,3.4,30.06,NW,310,0.0,0.0,58,1.94,,,99.99,meteohub,2013-02-18 11:27:00,
2013-02-18 06:32:00,15.6,3.0,30.07,NW,310,0.0,0.0,57,1.03,,,99.99,meteohub,2013-02-18 11:32:00,
2013-02-18 06:37:00,15.6,3.0,30.08,NW,310,0.0,0.0,57,0.38,,,99.99,meteohub,2013-02-18 11:37:00,
2013-02-18 06:42:00,15.6,3.0,30.08,NW,310,0.0,0.0,57,0.48,,,99.99,meteohub,2013-02-18 11:42:00,
2013-02-18 06:47:00,15.6,3.0,30.08,NW,310,0.0,0.0,57,0.52,,,99.99,meteohub,2013-02-18 11:47:00,
2013-02-18 06:52:00,15.4,3.4,30.08,NW,310,0.0,0.0,58,0.59,,,99.99,meteohub,2013-02-18 11:52:00,
2013-02-18 06:57:00,15.6,3.0,30.09,NW,310,0.0,0.0,57,0.62,,,99.99,meteohub,2013-02-18 11:57:00,
2013-02-18 07:02:00,15.6,3.0,30.09,NW,310,0.0,0.0,57,0.89,,,99.99,meteohub,2013-02-18 12:02:00,
2013-02-18 07:07:00,15.8,3.2,30.10,NW,310,0.0,0.0,57,1.95,,,99.99,meteohub,2013-02-18 12:07:00,
2013-02-18 07:12:00,16.0,3.4,30.10,NW,310,0.0,0.0,57,2.79,,,99.99,meteohub,2013-02-18 12:12:00,
2013-02-18 07:17:00,16.0,3.4,30.10,NW,310,0.0,0.0,57,4.23,,,99.99,meteohub,2013-02-18 12:17:00,
2013-02-18 07:22:00,16.0,3.7,30.11,NW,310,0.0,0.0,58,4.95,,,99.99,meteohub,2013-02-18 12:22:00,
2013-02-18 07:27:00,16.0,3.4,30.11,NW,310,0.0,0.0,57,6.51,,,99.99,meteohub,2013-02-18 12:27:00,
2013-02-18 07:32:00,16.2,3.9,30.11,NW,310,0.0,0.0,58,7.21,,,99.99,meteohub,2013-02-18 12:32:00,
2013-02-18 07:37:00,16.2,3.9,30.11,NW,310,0.0,0.0,58,8.57,,,99.99,meteohub,2013-02-18 12:37:00,
2013-02-18 07:42:00,16.3,3.7,30.11,NW,310,0.0,0.0,57,9.64,,,99.99,meteohub,2013-02-18 12:42:00,
2013-02-18 07:47:00,16.3,3.7,30.12,NW,310,0.0,0.0,57,10.29,,,99.99,meteohub,2013-02-18 12:47:00,
2013-02-18 07:52:00,16.7,4.1,30.12,NW,310,0.0,0.0,57,11.59,,,99.99,meteohub,2013-02-18 12:52:00,
2013-02-18 07:57:00,16.9,4.3,30.12,NW,310,0.0,0.0,57,13.09,,,99.99,meteohub,2013-02-18 12:57:00,
2013-02-18 08:02:00,17.1,4.5,30.12,NW,310,0.0,0.0,57,13.43,,,99.99,meteohub,2013-02-18 13:02:00,
2013-02-18 08:07:00,17.2,4.3,30.12,NW,310,0.0,0.0,56,13.88,,,99.99,meteohub,2013-02-18 13:07:00,
2013-02-18 08:12:00,17.4,4.5,30.13,NW,310,0.0,0.0,56,13.44,,,99.99,meteohub,2013-02-18 13:12:00,
2013-02-18 08:17:00,17.6,4.1,30.13,NW,310,0.0,0.0,55,13.52,,,99.99,meteohub,2013-02-18 13:17:00,
2013-02-18 08:22:00,18.0,5.0,30.12,NW,310,0.0,0.0,56,13.80,,,99.99,meteohub,2013-02-18 13:22:00,
2013-02-18 08:27:00,18.1,4.6,30.12,NW,310,0.0,0.0,55,13.44,,,99.99,meteohub,2013-02-18 13:27:00,
2013-02-18 08:32:00,18.1,4.6,30.12,NW,310,0.0,0.0,55,13.56,,,99.99,meteohub,2013-02-18 13:32:00,
2013-02-18 08:38:00,18.7,5.2,30.12,NW,310,0.0,0.0,55,13.80,,,99.99,meteohub,2013-02-18 13:38:00,
2013-02-18 08:43:00,18.9,5.0,30.12,NW,310,0.0,0.0,54,13.32,,,99.99,meteohub,2013-02-18 13:43:00,
2013-02-18 08:48:00,19.2,5.7,30.12,NW,310,0.0,0.0,55,13.68,,,99.99,meteohub,2013-02-18 13:48:00,
2013-02-18 08:53:00,19.8,5.0,30.11,NW,310,0.0,0.0,52,13.36,,,99.99,meteohub,2013-02-18 13:53:00,
2013-02-18 08:58:00,19.9,4.6,30.10,NW,310,0.0,0.0,51,13.48,,,99.99,meteohub,2013-02-18 13:58:00,
2013-02-18 09:03:00,20.5,5.2,30.11,NW,310,0.0,0.0,51,13.88,,,99.99,meteohub,2013-02-18 14:03:00,
2013-02-18 09:08:00,20.8,4.6,30.11,NW,310,0.0,0.0,49,13.48,,,99.99,meteohub,2013-02-18 14:08:00,
2013-02-18 09:13:00,21.2,4.6,30.11,NW,310,0.0,0.0,48,13.60,,,99.99,meteohub,2013-02-18 14:13:00,
2013-02-18 09:18:00,21.7,4.1,30.11,NW,310,0.0,0.0,46,13.36,,,99.99,meteohub,2013-02-18 14:18:00,
2013-02-18 09:23:00,21.9,3.7,30.12,NW,310,0.0,0.0,45,13.56,,,99.99,meteohub,2013-02-18 14:23:00,
2013-02-18 09:28:00,22.1,4.5,30.13,NW,310,0.0,0.0,46,13.84,,,99.99,meteohub,2013-02-18 14:28:00,
2013-02-18 09:33:00,22.3,4.1,30.13,NW,310,0.0,0.0,45,13.36,,,99.99,meteohub,2013-02-18 14:33:00,
2013-02-18 09:38:00,22.5,4.3,30.14,NW,310,0.0,0.0,45,13.60,,,99.99,meteohub,2013-02-18 14:38:00,
2013-02-18 09:44:00,22.8,4.1,30.14,NW,310,0.0,0.0,44,13.84,,,99.99,meteohub,2013-02-18 14:44:00,
2013-02-18 09:49:00,23.2,4.5,30.14,NW,310,0.0,0.0,44,13.32,,,99.99,meteohub,2013-02-18 14:49:00,
2013-02-18 09:54:00,23.4,4.6,30.14,NW,310,0.0,0.0,44,13.52,,,99.99,meteohub,2013-02-18 14:54:00,
2013-02-18 09:59:00,23.5,4.3,30.14,NW,310,0.0,0.0,43,13.84,,,99.99,meteohub,2013-02-18 14:59:00,
2013-02-18 10:04:00,23.9,5.2,30.15,NW,310,0.0,0.0,44,13.36,,,99.99,meteohub,2013-02-18 15:04:00,
2013-02-18 10:09:00,24.1,4.3,30.15,NW,310,0.0,0.0,42,13.60,,,99.99,meteohub,2013-02-18 15:09:00,
2013-02-18 10:14:00,24.1,4.3,30.15,NW,310,0.0,0.0,42,13.24,,,99.99,meteohub,2013-02-18 15:14:00,
2013-02-18 10:19:00,24.1,3.7,30.15,NW,310,0.0,0.0,41,13.64,,,99.99,meteohub,2013-02-18 15:19:00,
2013-02-18 10:24:00,23.9,3.6,30.16,NW,310,0.0,0.0,41,13.72,,,99.99,meteohub,2013-02-18 15:24:00,
2013-02-18 10:30:00,24.1,3.7,30.16,NW,310,0.0,0.0,41,13.60,,,99.99,meteohub,2013-02-18 15:30:00,
2013-02-18 10:35:00,24.6,5.4,30.17,NW,310,0.0,0.0,43,13.96,,,99.99,meteohub,2013-02-18 15:35:00,
2013-02-18 10:40:00,25.0,4.1,30.17,NW,310,0.0,0.0,40,13.48,,,99.99,meteohub,2013-02-18 15:40:00,
2013-02-18 10:45:00,25.2,4.8,30.16,NW,310,0.0,0.0,41,13.84,,,99.99,meteohub,2013-02-18 15:45:00,
2013-02-18 10:51:00,26.2,5.7,30.17,NW,310,0.0,0.0,41,13.17,,,99.99,meteohub,2013-02-18 15:51:00,
2013-02-18 10:56:00,25.9,5.4,30.16,NW,310,0.0,0.0,41,12.09,,,99.99,meteohub,2013-02-18 15:56:00,
2013-02-18 11:01:00,26.2,4.6,30.16,NW,310,0.0,0.0,39,10.77,,,99.99,meteohub,2013-02-18 16:01:00,
2013-02-18 11:06:00,25.9,4.3,30.17,NW,310,0.0,0.0,39,9.69,,,99.99,meteohub,2013-02-18 16:06:00,
2013-02-18 11:11:00,25.9,5.9,30.17,NW,310,0.0,0.0,42,8.49,,,99.99,meteohub,2013-02-18 16:11:00,
2013-02-18 11:16:00,26.4,7.0,30.17,NW,310,0.0,0.0,43,8.07,,,99.99,meteohub,2013-02-18 16:16:00,
2013-02-18 11:21:00,26.8,7.3,30.17,NW,310,0.0,0.0,43,7.04,,,99.99,meteohub,2013-02-18 16:21:00,
2013-02-18 11:26:00,27.0,5.9,30.17,NW,310,0.0,0.0,40,5.84,,,99.99,meteohub,2013-02-18 16:26:00,
2013-02-18 11:31:00,27.0,5.9,30.17,NW,310,0.0,0.0,40,4.64,,,99.99,meteohub,2013-02-18 16:31:00,
2013-02-18 11:36:00,26.8,6.3,30.17,NW,310,0.0,0.0,41,3.44,,,99.99,meteohub,2013-02-18 16:36:00,
2013-02-18 11:41:00,27.0,4.6,30.17,NW,310,0.0,0.0,38,2.36,,,99.99,meteohub,2013-02-18 16:41:00,
2013-02-18 11:46:00,27.0,6.4,30.17,NW,310,0.0,0.0,41,1.16,,,99.99,meteohub,2013-02-18 16:46:00,
2013-02-18 11:52:00,27.1,4.8,30.17,NW,310,0.0,0.0,38,0.87,,,99.99,meteohub,2013-02-18 16:52:00,
2013-02-18 11:57:00,27.1,5.5,30.17,NW,310,0.0,0.0,39,0.87,,,99.99,meteohub,2013-02-18 16:57:00,
2013-02-18 12:02:00,28.0,7.9,30.17,NW,310,0.0,0.0,42,0.87,,,99.99,meteohub,2013-02-18 17:02:00,
2013-02-18 12:07:00,28.0,5.2,30.17,NW,310,0.0,0.0,37,0.87,,,99.99,meteohub,2013-02-18 17:07:00,
2013-02-18 12:12:00,27.9,6.1,30.17,NW,310,0.0,0.0,39,0.53,,,99.99,meteohub,2013-02-18 17:12:00,
2013-02-18 12:17:00,28.4,7.7,30.17,NW,310,0.0,0.0,41,0.00,,,99.99,meteohub,2013-02-18 17:17:00,
2013-02-18 12:22:00,28.4,6.6,30.17,NW,310,0.0,0.0,39,0.00,,,99.99,meteohub,2013-02-18 17:22:00,
2013-02-18 12:27:00,28.0,5.7,30.16,NW,310,0.0,0.0,38,0.00,,,99.99,meteohub,2013-02-18 17:27:00,
2013-02-18 12:32:00,28.2,7.5,30.16,NW,310,0.0,0.0,41,0.00,,,99.99,meteohub,2013-02-18 17:32:00,
2013-02-18 12:37:00,28.6,6.8,30.15,NW,310,0.0,0.0,39,0.00,,,99.99,meteohub,2013-02-18 17:37:00,
2013-02-18 12:42:00,28.9,8.2,30.15,NW,310,0.0,0.0,41,0.00,,,99.99,meteohub,2013-02-18 17:42:00,
2013-02-18 12:47:00,28.9,6.4,30.15,NW,310,0.0,0.0,38,0.00,,,99.99,meteohub,2013-02-18 17:47:00,
2013-02-18 12:52:00,28.8,5.7,30.15,NW,310,0.0,0.0,37,0.00,,,99.99,meteohub,2013-02-18 17:52:00,
2013-02-18 12:57:00,29.5,7.5,30.15,NW,310,0.0,0.0,39,0.00,,,99.99,meteohub,2013-02-18 17:57:00,
2013-02-18 13:02:00,29.7,8.2,30.15,NW,310,0.0,0.0,40,0.00,,,99.99,meteohub,2013-02-18 18:02:00,
2013-02-18 13:07:00,30.0,7.5,30.15,NW,310,0.0,0.0,38,0.00,,,99.99,meteohub,2013-02-18 18:07:00,
2013-02-18 13:12:00,30.2,7.7,30.15,NW,310,0.0,0.0,38,0.00,,,99.99,meteohub,2013-02-18 18:12:00,
2013-02-18 13:17:00,30.0,6.3,30.15,NW,310,0.0,0.0,36,0.00,,,99.99,meteohub,2013-02-18 18:17:00,
2013-02-18 13:22:00,30.4,9.0,30.15,NW,310,0.0,0.0,40,0.00,,,99.99,meteohub,2013-02-18 18:22:00,
2013-02-18 13:27:00,31.5,8.8,30.15,NW,310,0.0,0.0,38,0.00,,,99.99,meteohub,2013-02-18 18:27:00,
2013-02-18 13:32:00,31.5,6.3,30.15,NW,310,0.0,0.0,34,0.00,,,99.99,meteohub,2013-02-18 18:32:00,
2013-02-18 13:38:00,31.3,6.8,30.14,NW,310,0.0,0.0,35,0.00,,,99.99,meteohub,2013-02-18 18:38:00,
2013-02-18 13:43:00,31.1,7.3,30.14,NW,310,0.0,0.0,36,0.00,,,99.99,meteohub,2013-02-18 18:43:00,
2013-02-18 13:48:00,31.5,7.0,30.14,NW,310,0.0,0.0,35,0.00,,,99.99,meteohub,2013-02-18 18:48:00,
2013-02-18 13:53:00,31.8,8.4,30.14,NW,310,0.0,0.0,37,0.00,,,99.99,meteohub,2013-02-18 18:53:00,
2013-02-18 13:58:00,32.2,8.8,30.14,NW,310,0.0,0.0,37,0.00,,,99.99,meteohub,2013-02-18 18:58:00,
2013-02-18 14:03:00,32.4,5.7,30.14,NW,310,0.0,0.0,32,0.00,,,99.99,meteohub,2013-02-18 19:03:00,
2013-02-18 14:08:00,32.7,9.3,30.14,NW,310,0.0,0.0,37,0.00,,,99.99,meteohub,2013-02-18 19:08:00,
2013-02-18 14:13:00,33.3,7.3,30.14,NW,310,0.0,0.0,33,0.00,,,99.99,meteohub,2013-02-18 19:13:00,
2013-02-18 14:18:00,33.3,7.3,30.14,NW,310,0.0,0.0,33,0.00,,,99.99,meteohub,2013-02-18 19:18:00,
2013-02-18 14:23:00,33.3,7.9,30.14,NW,310,0.0,0.0,34,0.00,,,99.99,meteohub,2013-02-18 19:23:00,
2013-02-18 14:28:00,33.1,6.4,30.13,NW,310,0.0,0.0,32,0.00,,,99.99,meteohub,2013-02-18 19:28:00,
2013-02-18 14:33:00,33.3,9.1,30.13,NW,310,0.0,0.0,36,0.00,,,99.99,meteohub,2013-02-18 19:33:00,
2013-02-18 14:38:00,33.6,9.0,30.13,NW,310,0.0,0.0,35,0.00,,,99.99,meteohub,2013-02-18 19:38:00,
2013-02-18 14:43:00,34.2,10.0,30.13,NW,310,0.0,0.0,36,0.00,,,99.99,meteohub,2013-02-18 19:43:00,
2013-02-18 14:48:00,34.2,8.8,30.13,NW,310,0.0,0.0,34,0.00,,,99.99,meteohub,2013-02-18 19:48:00,
2013-02-18 14:53:00,34.3,8.2,30.13,NW,310,0.0,0.0,33,0.00,,,99.99,meteohub,2013-02-18 19:53:00,
2013-02-18 14:58:00,34.3,8.2,30.13,NW,310,0.0,0.0,33,0.00,,,99.99,meteohub,2013-02-18 19:58:00,
2013-02-18 15:04:00,34.3,9.0,30.13,NW,310,0.0,0.0,34,0.00,,,99.99,meteohub,2013-02-18 20:04:00,
2013-02-18 15:09:00,34.2,8.8,30.13,NW,310,0.0,0.0,34,0.00,,,99.99,meteohub,2013-02-18 20:09:00,
2013-02-18 15:14:00,34.5,9.0,30.13,NW,310,0.0,0.0,34,0.00,,,99.99,meteohub,2013-02-18 20:14:00,
2013-02-18 15:19:00,34.5,8.4,30.13,NW,310,0.0,0.0,33,0.00,,,99.99,meteohub,2013-02-18 20:19:00,
2013-02-18 15:24:00,34.5,7.7,30.13,NW,310,0.0,0.0,32,0.00,,,99.99,meteohub,2013-02-18 20:24:00,
2013-02-18 15:29:00,34.7,8.6,30.13,NW,310,0.0,0.0,33,0.00,,,99.99,meteohub,2013-02-18 20:29:00,
2013-02-18 15:34:00,34.7,8.6,30.13,NW,310,0.0,0.0,33,0.00,,,99.99,meteohub,2013-02-18 20:34:00,
2013-02-18 15:39:00,34.5,7.0,30.13,North,-999,-999.0,0.0,31,0.00,,,99.99,meteohub,2013-02-18 20:39:00,
2013-02-18 15:44:00,34.5,8.4,30.13,NW,310,0.0,0.0,33,0.00,,,99.99,meteohub,2013-02-18 20:44:00,
2013-02-18 15:49:00,34.5,7.7,30.13,NW,310,0.0,0.0,32,0.00,,,99.99,meteohub,2013-02-18 20:49:00,
2013-02-18 15:54:00,34.0,7.2,30.13,NW,310,0.0,0.0,32,0.00,,,99.99,meteohub,2013-02-18 20:54:00,
2013-02-18 15:59:00,33.4,6.8,30.13,NW,310,0.0,0.0,32,0.00,,,99.99,meteohub,2013-02-18 20:59:00,
2013-02-18 16:04:00,33.1,6.4,30.14,NW,310,0.0,0.0,32,0.02,,,99.99,meteohub,2013-02-18 21:04:00,
2013-02-18 16:10:00,32.9,7.5,30.14,NW,310,0.0,0.0,34,0.02,,,99.99,meteohub,2013-02-18 21:10:00,
2013-02-18 16:15:00,32.7,7.5,30.14,NW,310,0.0,0.0,34,0.02,,,99.99,meteohub,2013-02-18 21:15:00,
2013-02-18 16:20:00,32.7,7.5,30.14,NW,310,0.0,0.0,34,0.02,,,99.99,meteohub,2013-02-18 21:20:00,
2013-02-18 16:25:00,32.5,7.9,30.14,NW,310,0.0,0.0,35,0.02,,,99.99,meteohub,2013-02-18 21:25:00,
2013-02-18 16:30:00,32.5,8.6,30.14,NW,310,0.0,0.0,36,0.02,,,99.99,meteohub,2013-02-18 21:30:00,
2013-02-18 16:35:00,32.5,8.6,30.15,NW,310,0.0,0.0,36,0.02,,,99.99,meteohub,2013-02-18 21:35:00,
2013-02-18 16:40:00,32.5,7.9,30.15,NW,310,0.0,0.0,35,0.02,,,99.99,meteohub,2013-02-18 21:40:00,
2013-02-18 16:45:00,32.4,9.0,30.15,NW,310,0.0,0.0,37,0.02,,,99.99,meteohub,2013-02-18 21:45:00,
2013-02-18 16:50:00,32.2,8.2,30.15,NW,310,0.0,0.0,36,0.02,,,99.99,meteohub,2013-02-18 21:50:00,
2013-02-18 16:55:00,32.2,8.8,30.15,NW,310,0.0,0.0,37,0.02,,,99.99,meteohub,2013-02-18 21:55:00,
2013-02-18 17:01:00,32.2,8.2,30.15,NW,310,0.0,0.0,36,0.00,,,99.99,meteohub,2013-02-18 22:01:00,
2013-02-18 17:06:00,31.8,7.9,30.15,NW,310,0.0,0.0,36,0.00,,,99.99,meteohub,2013-02-18 22:06:00,
2013-02-18 17:11:00,31.8,8.4,30.15,NW,310,0.0,0.0,37,0.00,,,99.99,meteohub,2013-02-18 22:11:00,
2013-02-18 17:16:00,31.6,8.4,30.16,NW,310,0.0,0.0,37,0.00,,,99.99,meteohub,2013-02-18 22:16:00,
2013-02-18 17:21:00,31.5,8.2,30.16,NW,310,0.0,0.0,37,0.00,,,99.99,meteohub,2013-02-18 22:21:00,
2013-02-18 17:26:00,31.5,8.2,30.16,NW,310,0.0,0.0,37,0.00,,,99.99,meteohub,2013-02-18 22:26:00,
2013-02-18 17:32:00,31.3,9.1,30.16,NW,310,0.0,0.0,39,0.00,,,99.99,meteohub,2013-02-18 22:32:00,
2013-02-18 17:37:00,31.1,9.7,30.17,NW,310,0.0,0.0,40,0.00,,,99.99,meteohub,2013-02-18 22:37:00,
2013-02-18 17:42:00,30.7,8.1,30.17,NW,310,0.0,0.0,38,0.00,,,99.99,meteohub,2013-02-18 22:42:00,
2013-02-18 17:47:00,30.7,8.8,30.17,NW,310,0.0,0.0,39,0.00,,,99.99,meteohub,2013-02-18 22:47:00,
2013-02-18 17:52:00,30.6,9.1,30.17,NW,310,0.0,0.0,40,0.00,,,99.99,meteohub,2013-02-18 22:52:00,
2013-02-18 17:57:00,30.6,9.7,30.17,NW,310,0.0,0.0,41,0.00,,,99.99,meteohub,2013-02-18 22:57:00,
2013-02-18 18:02:00,30.4,9.0,30.17,NW,310,0.0,0.0,40,0.00,,,99.99,meteohub,2013-02-18 23:02:00,
2013-02-18 18:07:00,30.2,9.3,30.17,NW,310,0.0,0.0,41,0.00,,,99.99,meteohub,2013-02-18 23:07:00,
2013-02-18 18:12:00,29.8,10.0,30.18,NW,310,0.0,0.0,43,0.00,,,99.99,meteohub,2013-02-18 23:12:00,
2013-02-18 18:17:00,29.7,10.4,30.18,NW,310,0.0,0.0,44,0.00,,,99.99,meteohub,2013-02-18 23:17:00,
2013-02-18 18:22:00,29.3,11.1,30.18,NW,310,0.0,0.0,46,0.00,,,99.99,meteohub,2013-02-18 23:22:00,
2013-02-18 18:27:00,28.9,9.7,30.18,NW,310,0.0,0.0,44,0.00,,,99.99,meteohub,2013-02-18 23:27:00,
2013-02-18 18:32:00,28.9,10.2,30.18,NW,310,0.0,0.0,45,0.00,,,99.99,meteohub,2013-02-18 23:32:00,
2013-02-18 18:38:00,28.9,11.3,30.19,NW,310,0.0,0.0,47,0.00,,,99.99,meteohub,2013-02-18 23:38:00,
2013-02-18 18:43:00,28.9,10.2,30.19,NW,310,0.0,0.0,45,0.00,,,99.99,meteohub,2013-02-18 23:43:00,
2013-02-18 18:48:00,29.1,10.9,30.18,NW,310,0.0,0.0,46,0.00,,,99.99,meteohub,2013-02-18 23:48:00,
2013-02-18 18:53:00,28.9,10.2,30.19,NW,310,0.0,0.0,45,0.00,,,99.99,meteohub,2013-02-18 23:53:00,
2013-02-18 18:58:00,28.9,10.2,30.19,NW,310,0.0,0.0,45,0.00,,,99.99,meteohub,2013-02-18 23:58:00,
2013-02-18 19:03:00,28.8,10.6,30.19,NW,310,0.0,0.0,46,0.00,,,99.99,meteohub,2013-02-19 00:03:00,
2013-02-18 19:08:00,28.4,11.7,30.19,NW,310,0.0,0.0,49,0.00,,,0.00,meteohub,2013-02-19 00:08:00,
2013-02-18 19:13:00,27.9,11.7,30.19,NW,310,0.0,0.0,50,0.00,,,0.00,meteohub,2013-02-19 00:13:00,
2013-02-18 19:19:00,27.7,11.5,30.19,NW,310,0.0,0.0,50,0.00,,,0.00,meteohub,2013-02-19 00:19:00,
2013-02-18 19:24:00,27.3,11.1,30.19,NW,310,0.0,0.0,50,0.00,,,0.00,meteohub,2013-02-19 00:24:00,
2013-02-18 19:29:00,27.0,12.0,30.20,NW,310,0.0,0.0,53,0.00,,,0.00,meteohub,2013-02-19 00:29:00,
2013-02-18 19:34:00,26.8,12.4,30.19,NW,310,0.0,0.0,54,0.00,,,0.00,meteohub,2013-02-19 00:34:00,
2013-02-18 19:39:00,26.8,12.0,30.19,NW,310,0.0,0.0,53,0.00,,,0.00,meteohub,2013-02-19 00:39:00,
2013-02-18 19:44:00,26.6,11.3,30.19,NW,310,0.0,0.0,52,0.00,,,0.00,meteohub,2013-02-19 00:44:00,
2013-02-18 19:49:00,26.4,10.8,30.19,NW,310,0.0,0.0,51,0.00,,,0.00,meteohub,2013-02-19 00:49:00,
2013-02-18 19:55:00,26.2,10.6,30.19,NW,310,0.0,0.0,51,0.00,,,0.00,meteohub,2013-02-19 00:55:00,
2013-02-18 20:00:00,26.1,11.3,30.19,NW,310,0.0,0.0,53,0.00,,,0.00,meteohub,2013-02-19 01:00:00,
2013-02-18 20:05:00,25.9,10.8,30.19,NW,310,0.0,0.0,52,0.00,,,0.00,meteohub,2013-02-19 01:05:00,
2013-02-18 20:10:00,25.9,10.8,30.19,NW,310,0.0,0.0,52,0.00,,,0.00,meteohub,2013-02-19 01:10:00,
2013-02-18 20:15:00,25.5,11.1,30.19,NW,310,0.0,0.0,54,0.00,,,0.00,meteohub,2013-02-19 01:15:00,
2013-02-18 20:20:00,25.3,10.6,30.20,NW,310,0.0,0.0,53,0.00,,,0.00,meteohub,2013-02-19 01:20:00,
2013-02-18 20:25:00,25.2,10.9,30.19,NW,310,0.0,0.0,54,0.00,,,0.00,meteohub,2013-02-19 01:25:00,
2013-02-18 20:30:00,25.2,10.9,30.20,NW,310,0.0,0.0,54,0.00,,,0.00,meteohub,2013-02-19 01:30:00,
2013-02-18 20:35:00,25.0,11.1,30.19,NW,310,0.0,0.0,55,0.00,,,0.00,meteohub,2013-02-19 01:35:00,
2013-02-18 20:40:00,24.6,9.9,30.20,NW,310,0.0,0.0,53,0.00,,,0.00,meteohub,2013-02-19 01:40:00,
2013-02-18 20:45:00,24.6,10.4,30.19,NW,310,0.0,0.0,54,0.00,,,0.00,meteohub,2013-02-19 01:45:00,
2013-02-18 20:50:00,24.4,10.2,30.20,NW,310,0.0,0.0,54,0.00,,,0.00,meteohub,2013-02-19 01:50:00,
2013-02-18 20:55:00,24.3,10.4,30.20,NW,310,0.0,0.0,55,0.00,,,0.00,meteohub,2013-02-19 01:55:00,
2013-02-18 21:01:00,24.3,10.4,30.19,NW,310,0.0,0.0,55,0.00,,,0.00,meteohub,2013-02-19 02:01:00,
2013-02-18 21:06:00,24.3,10.0,30.20,NW,310,0.0,0.0,54,0.00,,,0.00,meteohub,2013-02-19 02:06:00,
2013-02-18 21:11:00,24.1,10.6,30.21,NW,310,0.0,0.0,56,0.00,,,0.00,meteohub,2013-02-19 02:11:00,
2013-02-18 21:16:00,24.1,10.2,30.21,NW,310,0.0,0.0,55,0.00,,,0.00,meteohub,2013-02-19 02:16:00,
2013-02-18 21:21:00,24.1,10.2,30.21,NW,310,0.0,0.0,55,0.00,,,0.00,meteohub,2013-02-19 02:21:00,
2013-02-18 21:27:00,24.1,10.6,30.22,NW,310,0.0,0.0,56,0.00,,,0.00,meteohub,2013-02-19 02:27:00,
2013-02-18 21:32:00,23.9,10.9,30.21,NW,310,0.0,0.0,57,0.00,,,0.00,meteohub,2013-02-19 02:32:00,
2013-02-18 21:37:00,23.5,11.3,30.21,NW,310,0.0,0.0,59,0.00,,,0.00,meteohub,2013-02-19 02:37:00,
2013-02-18 21:42:00,23.4,11.5,30.21,NW,310,0.0,0.0,60,0.00,,,0.00,meteohub,2013-02-19 02:42:00,
2013-02-18 21:47:00,23.2,11.7,30.21,NW,310,0.0,0.0,61,0.00,,,0.00,meteohub,2013-02-19 02:47:00,
2013-02-18 21:52:00,22.8,11.8,30.21,NW,310,0.0,0.0,62,0.00,,,0.00,meteohub,2013-02-19 02:52:00,
2013-02-18 21:57:00,22.6,12.0,30.21,NW,310,0.0,0.0,63,0.00,,,0.00,meteohub,2013-02-19 02:57:00,
2013-02-18 22:02:00,22.3,12.4,30.21,NW,310,0.0,0.0,65,0.00,,,0.00,meteohub,2013-02-19 03:02:00,
2013-02-18 22:07:00,22.3,12.7,30.21,NW,310,0.0,0.0,66,0.00,,,0.00,meteohub,2013-02-19 03:07:00,
2013-02-18 22:12:00,21.9,12.4,30.21,NW,310,0.0,0.0,66,0.00,,,0.00,meteohub,2013-02-19 03:12:00,
2013-02-18 22:17:00,21.9,12.0,30.21,NW,310,0.0,0.0,65,0.00,,,0.00,meteohub,2013-02-19 03:17:00,
2013-02-18 22:22:00,21.9,12.0,30.21,NW,310,0.0,0.0,65,0.00,,,0.00,meteohub,2013-02-19 03:22:00,
2013-02-18 22:27:00,21.7,11.8,30.21,NW,310,0.0,0.0,65,0.00,,,0.00,meteohub,2013-02-19 03:27:00,
2013-02-18 22:33:00,21.7,11.1,30.21,NW,310,0.0,0.0,63,0.00,,,0.00,meteohub,2013-02-19 03:33:00,
2013-02-18 22:38:00,21.9,11.7,30.21,NW,310,0.0,0.0,64,0.00,,,0.00,meteohub,2013-02-19 03:38:00,
2013-02-18 22:43:00,22.3,12.4,30.21,NW,310,0.0,0.0,65,0.00,,,0.00,meteohub,2013-02-19 03:43:00,
2013-02-18 22:48:00,22.3,12.7,30.21,NW,310,0.0,0.0,66,0.00,,,0.00,meteohub,2013-02-19 03:48:00,
2013-02-18 22:53:00,22.3,12.7,30.21,NW,310,0.0,0.0,66,0.00,,,0.00,meteohub,2013-02-19 03:53:00,
2013-02-18 22:58:00,22.1,12.6,30.21,NW,310,0.0,0.0,66,0.00,,,0.00,meteohub,2013-02-19 03:58:00,
2013-02-18 23:03:00,21.9,11.7,30.21,NW,310,0.0,0.0,64,0.00,,,0.00,meteohub,2013-02-19 04:03:00,
2013-02-18 23:08:00,22.3,11.7,30.21,NW,310,0.0,0.0,63,0.00,,,0.00,meteohub,2013-02-19 04:08:00,
2013-02-18 23:13:00,22.3,12.4,30.22,NW,310,0.0,0.0,65,0.00,,,0.00,meteohub,2013-02-19 04:13:00,
2013-02-18 23:19:00,22.6,11.3,30.22,NW,310,0.0,0.0,61,0.00,,,0.00,meteohub,2013-02-19 04:19:00,
2013-02-18 23:24:00,23.2,11.7,30.22,NW,310,0.0,0.0,61,0.00,,,0.00,meteohub,2013-02-19 04:24:00,
2013-02-18 23:29:00,23.5,12.4,30.22,NW,310,0.0,0.0,62,0.00,,,0.00,meteohub,2013-02-19 04:29:00,
2013-02-18 23:34:00,23.5,13.5,30.22,NW,310,0.0,0.0,65,0.00,,,0.00,meteohub,2013-02-19 04:34:00,
2013-02-18 23:39:00,23.5,13.8,30.22,NW,310,0.0,0.0,66,0.00,,,0.00,meteohub,2013-02-19 04:39:00,
2013-02-18 23:44:00,23.4,13.6,30.22,NW,310,0.0,0.0,66,0.00,,,0.00,meteohub,2013-02-19 04:44:00,
2013-02-18 23:49:00,23.2,13.1,30.22,NW,310,0.0,0.0,65,0.00,,,0.00,meteohub,2013-02-19 04:49:00,
2013-02-18 23:55:00,23.0,12.9,30.23,NW,310,0.0,0.0,65,0.00,,,0.00,meteohub,2013-02-19 04:55:00,